This is the latest recevied weather packets stored in our database for station/object KA8DUX-2. If no packets are shown the sender has not sent any weather packets the latest 10 day(s).
| Time | Temp. | Humidity | Pressure | Rain* | Wind** | Luminosity | Snow |
|---|---|---|---|---|---|---|---|
| 1777607760 | 5.56° C | 66% | 1013.3 hPa | 0 mm | - | 0 W/m² | - |
| 1777607457 | 5.56° C | 66% | 1013.2 hPa | 0 mm | - | 0 W/m² | - |
| 1777607153 | 5.56° C | 66% | 1013.4 hPa | 0 mm | - | 0 W/m² | - |
| 1777606849 | 5.56° C | 65% | 1013.6 hPa | 0 mm | - | 0 W/m² | - |
| 1777606545 | 5.56° C | 64% | 1013.4 hPa | 0 mm | - | 0 W/m² | - |
| 1777606239 | 6.11° C | 64% | 1013.4 hPa | 0 mm | - | 0 W/m² | - |
| 1777605936 | 6.11° C | 66% | 1013.5 hPa | 0 mm | - | 0 W/m² | - |
| 1777605632 | 6.11° C | 65% | 1013.7 hPa | 0 mm | - | 0 W/m² | - |
| 1777605331 | 6.11° C | 64% | 1014 hPa | 0 mm | - | 0 W/m² | - |
| 1777605028 | 6.11° C | 63% | 1013.8 hPa | 0 mm | - | 0 W/m² | - |
| 1777604723 | 6.67° C | 63% | 1013.8 hPa | 0 mm | - | 0 W/m² | - |
| 1777604420 | 6.67° C | 63% | 1013.8 hPa | 0 mm | - | 0 W/m² | - |
| 1777604120 | 6.67° C | 62% | 1014 hPa | 0 mm | - | 0 W/m² | - |
| 1777603817 | 6.67° C | 64% | 1013.9 hPa | 0 mm | - | 0 W/m² | - |
| 1777603514 | 6.67° C | 61% | 1013.8 hPa | 0 mm | - | 0 W/m² | - |
| 1777603209 | 6.67° C | 61% | 1013.8 hPa | 0 mm | - | 0 W/m² | - |
| 1777602905 | 6.67° C | 59% | 1013.7 hPa | 0 mm | - | 0 W/m² | - |
| 1777602600 | 6.67° C | 60% | 1014.1 hPa | 0 mm | - | 0 W/m² | - |
| 1777602296 | 6.67° C | 62% | 1013.9 hPa | 0 mm | - | 0 W/m² | - |
| 1777601991 | 6.67° C | 62% | 1013.9 hPa | 0 mm | - | 0 W/m² | - |
| 1777601687 | 6.67° C | 63% | 1014 hPa | 0 mm | - | 0 W/m² | - |
| 1777601382 | 6.67° C | 61% | 1013.9 hPa | 0 mm | - | 0 W/m² | - |
| 1777601079 | 6.67° C | 61% | 1013.8 hPa | 0 mm | - | 0 W/m² | - |
| 1777600776 | 7.22° C | 60% | 1013.8 hPa | 0 mm | - | 0 W/m² | - |
| 1777600472 | 6.67° C | 60% | 1013.9 hPa | 0 mm | - | 0 W/m² | - |
* Rain latest hour (hover to see other rain measurements)
** Current wind speed in m/s (hover to see current wind gust speed)